STARLINK-2016 (47639 NORAD) Tracking and Keplerian Element Data

This shows tracking and keplerian element data for the satellite.

Feedback or suggestion? Click here.




ElementValue
Catalog47639
NameSTARLINK-2016
Epoch Orbit178
Epoch Day59.91667824
Epoch Year2021
RAAN38.116
Inclination53.0499
Eccentricity0.0001544
Argument of Perigee105.1264
Mean Anonmoly17.5459
Mean Motion15.86219652
Decay Rate0.00093161
L11 47639U 21012V 21059.91667824 .00093161 00000-0 36540-3 0 9996
L22 47639 53.0499 38.1160 0001544 105.1264 17.5459 15.86219652 1785

Live tracking and technical data element details for STARLINK-2016 (NORAD 47639). STARLINK-2016 can be tracked NOW for your location showing map with azimuth and elevation plus other details from your city location.

Track the satellite on the map from your city or location and see movement details for azimuth, elevation, latitude, longitude, range, height, and movement on the map or in text.







IsCatalogInMostPopularTable: catalog: 47639, numindb: 4
Update: records affected: 1



GetName: 47639 STARLINK-2016

Hit Count: updated at: Mon, 01 Mar 2021 16:43:00 GMT